Location: Unspecified
(0.0000°N, 0.0000°E)
Time: 04:24:25
(UTC+00:00)

TBA - TO BE ASSIGNED - Visible Passes

Search period start: 21 May 2026 00:00
Search period end: 31 May 2026 00:00
Orbit: 417 x 421 km, 97.3° (Epoch: 20 May)

Date Brightness Start Highest point End Pass type
(mag) Time Alt. Az. Time Alt. Az. Time Alt. Az.
21 May ? 19:19:33 10° WNW 19:20:27 11° W 19:21:22 10° W visible
22 May ? 18:32:48 10° N 18:35:59 75° W 18:39:11 10° SSW visible
24 May ? 18:35:12 10° N 18:38:21 67° WNW 18:41:32 10° SSW visible
26 May ? 18:36:51 10° N 18:39:59 62° W 18:43:08 10° SSW visible
28 May ? 18:37:43 10° N 18:40:51 60° W 18:43:58 10° SSW visible
30 May ? 18:37:51 10° N 18:40:57 60° W 18:44:04 10° SSW visible
